sat.trackr.live / text

‹ back to catalog

STARLINK-11739 [DTC]

NORAD 64374 · 2025-127E

PAYLOAD ACTIVE UNKNOWN

§ Identity

Operator
Country
US
Launch date
2025-06-13
Launch site
AFETR
Launch vehicle
Mass (kg)
RCS (m²)

Purposes: comms

External: N2YO · Heavens-Above · Gunter

§ Orbital elements

Epoch: 2026-09-20T07:09:39.935232Z

Period
91.66 min
Inclination
43.0000°
Eccentricity
0.0005514
Mean motion
15.70946019 rev/d
Perigee alt
352.5 km
Apogee alt
359.9 km
Semi-major
6,734.3 km
B*
1.1016e-3
RAAN
351.1088°
Arg perigee
284.4345°
Mean anomaly
75.5911°
Rev number
7,411

§ Raw data

STARLINK-11739 [DTC]1 64374U 25127E   26263.29837888  .00144103  00000+0  11016-2 0  99962 64374  43.0000 351.1088 0005514 284.4345  75.5911 15.70946019 74117

JSON: /api/v1/satellites/64374 · /tle

For live sub-satellite position, see the globe view (requires WebGL).

§ Visibility from observer

Set your observer location to see the next 7 days of passes ≥ 10°. The values pass through the URL so the page stays shareable.

No JS? Fill the form by hand. The geolocation button needs JavaScript.